Regional Weather Roundup
Issued by NWS

Home | Current Version | Previous Version | Graphics & Text | Print | Product List | Glossary Off
Versions: 1 2 3 4 5 6 7 8 9 10 11 12 13 14 15 16 17 18 19 20 21 22 23 24 25 26 27 28 29 30 31 32 33 34 35 36 37 38 39 40 41 42 43 44 45 46 47 48 49 50

000
ASUS43 KMKX 241111
RWRWI

WISCONSIN REGIONAL WEATHER ROUNDUP
NATIONAL WEATHER SERVICE MILWAUKEE/SULLIVAN WI
500 AM CST MON NOV 24 2014

NOTE: "FAIR" INDICATES FEW OR NO CLOUDS BELOW 12,000 FEET WITH NO
SIGNIFICANT WEATHER AND/OR OBSTRUCTIONS TO VISIBILITY.

WIZ001-002-006>008-014>016-023>028-241200-
NORTHWEST WISCONSIN

CITY           SKY/WX    TMP DP  RH WIND       PRES   REMARKS
SUPERIOR ARPT  DRIZZLE   35  32  90 N7        29.24S WCI  29
ASHLAND        LGT SNOW  33  32  96 NW6       29.19S FOG     WCI  28
HAYWARD        LGT SNOW  33  31  92 VRB3      29.18S FOG
SIREN          LGT SNOW  32  32 100 NW15      29.25R WCI  22
CUMBERLAND     FLURRIES  32  32 100 NW15      29.20S WCI  22
RICE LAKE      MIX PCPN  33  33  99 NW10G17   29.20F WCI  25
CHETEK         DRIZZLE   33  33 100 NW6       29.19S WCI  27
LADYSMITH      LGT RAIN  34  33  99 NW10G16   29.16S WCI  26
EAU CLAIRE     FLURRIES  34  32  92 NW9       29.17F WCI  27
MENOMONIE      CLOUDY    35  33  94 W13G20    29.20S WCI  26
NEW RICHMOND   CLOUDY    32  32 100 NW15G21   29.25S WCI  22
OSCEOLA        CLOUDY    33  32  99 NW14G22   29.29R WCI  23
$$

WIZ003>005-009-010-017-018-241200-
NORTH CENTRAL WISCONSIN

CITY           SKY/WX    TMP DP  RH WIND       PRES   REMARKS
MANITOWISH WTR DRIZZLE   35  35 100 N10G16    29.08F WCI  27
ARBOR VITAE    LGT RAIN  37  36  96 NW9       29.07F WCI  30
WOODRUFF       LGT RAIN  37  36  96 NW9       29.07F WCI  30
RHINELANDER    LGT RAIN  36  36 100 NW7       29.06F WCI  30
EAGLE RIVER    LGT RAIN  36  36 100 NW8       29.05S WCI  30
LAND O LAKES   LGT RAIN  37  37 100 NW9       29.06F WCI  30
PHILLIPS       DRIZZLE   34  33  99 NW8       29.10F WCI  27
TOMAHAWK       LGT RAIN  36  35  97 NW5       29.08F WCI  32
MEDFORD        RAIN      35  35 100 NW15      29.08F WCI  25
MERRILL        DRIZZLE   38  38 100 N8        29.06S WCI  32
$$

WIZ029-030-035-036-043>047-241200-
CENTRAL WISCONSIN

CITY           SKY/WX    TMP DP  RH WIND       PRES   REMARKS
WAUSAU         LGT RAIN  41  40  96 NW10      29.03F
MOSINEE        DRIZZLE   39  39 100 NW7       29.06S WCI  34
MARSHFIELD     LGT RAIN  38  36  92 NW12      29.08R WCI  30
STEVENS POINT  CLOUDY    40  40 100 W8        29.05F FOG     WCI  34
WAUPACA        CLOUDY    45  44  95 W8        29.03F
WAUTOMA        CLOUDY    42  42 100 W10       29.06R FOG
WISC RAPIDS    CLOUDY    39  37  92 NW9       29.08S FOG     WCI  33
CAMP DOUGLAS   CLOUDY    37  37 100 W12       29.10S WCI  30
$$

WIZ011>013-019>022-031-037>040-048>050-241200-
NORTHEAST WISCONSIN

CITY           SKY/WX    TMP DP  RH WIND       PRES   REMARKS
ANTIGO         DRIZZLE   38  38 100 NW8       29.03F WCI  32
SHAWANO        DRIZZLE   42  41  95 W3        29.03F
OCONTO         CLOUDY    40  40 100 W3        29.00F
STURGEON BAY   CLOUDY    41  37  87 W7        29.00S VSB 1/2
GREEN BAY      LGT RAIN  40  39  97 W7        29.01F FOG
MANITOWOC      CLOUDY    43  43 100 W7        29.01S FOG
APPLETON       NOT AVBL
CLINTONVILLE   DRIZZLE   41  41 100 CALM      29.03F
OSHKOSH        LGT RAIN  42  41  96 NW5       29.02F FOG
$$

WIZ032>034-041-042-053>061-241200-
SOUTHWEST WISCONSIN

CITY           SKY/WX    TMP DP  RH WIND       PRES   REMARKS
LA CROSSE      LGT RAIN  36  35  96 NW15      29.17S WCI  27
SPARTA         CLOUDY    37  36  96 NW12G17   29.15S WCI  29
VIROQUA        CLOUDY    34  34 100 NW18      29.14R WCI  23
BOSCOBEL       CLOUDY    39  35  86 W10       29.16R WCI  32
PRAIRIE DU CHI CLOUDY    35  32  88 W14G21    29.18S WCI  26
PLATTEVILLE    CLOUDY    37  36  98 W16G23    29.15R WCI  27
$$

WIZ056-057-062-063-064-067-068-241200-
SOUTH CENTRAL WISCONSIN

CITY           SKY/WX    TMP DP  RH WIND       PRES   REMARKS
REEDSBURG      CLOUDY    38  37  97 NW12G17   29.09S WCI  30
BARABOO/DELLS  CLOUDY    38  37  97 NW7G16    29.08S WCI  33
LONE ROCK      CLOUDY    44  37  76 NW12      29.12R
MINERAL POINT  CLOUDY    39  37  93 NW17      29.10S WCI  30
MADISON        CLOUDY    43  42  97 NW10      29.07R
MIDDLETON      CLOUDY    42  42 100 NW14G21   29.08R
WATERTOWN      FOG       43  43 100 CALM      29.04S VSB 1/2
MONROE         CLOUDY    39  39 100 NW12G24   29.09R FOG     WCI  32
JANESVILLE     CLOUDY    46  45  93 W7        29.07R FOG
$$

WIZ051-052-058>065-066-070>072-241200-
SOUTHEAST WISCONSIN

CITY           SKY/WX    TMP DP  RH WIND       PRES   REMARKS
MILWAUKEE      CLOUDY    47  45  93 W5        29.03F
WAUKESHA       DRIZZLE   43  43 100 W5        29.04F
MILWAUKEE/TIMM DRIZZLE   45  43  93 W5        29.04F
RACINE         CLOUDY    46  45  96 SW7       29.06S
BURLINGTON     CLOUDY    43  43 100 CALM      29.05S FOG
KENOSHA        CLOUDY    47  46  97 SW7       29.05S FOG
FOND DU LAC    CLOUDY    42  41  96 CALM      29.03S FOG
SHEBOYGAN      LGT RAIN  43  42  97 W7        29.01F
WEST BEND      CLOUDY    43  43 100 W3        29.02F
JUNEAU         DRZL/FOG  42  42 100 SW3       29.04F VSB 1/4
$$

LSZ147-162-241200-
LAKE SUPERIOR

STATION/POSITION TIME  TEMP    WIND        PRES    WAVE
                       AIR SEA DIR/SP/G            HT/PER
                 (UTC) (F)     (DEG/KT/KT) (MB)    (FT/S)
DEVILS ISLAND    1100   38     340/ 15/ 18  988.6R
PORT WING        1000   36     310/ 11/ 15  989.8
SAXON HARBOR     1000   37     300/  9/ 14  987.8F
$$

LMZ867-665-643>646-241200-
LAKE MICHIGAN

STATION/POSITION TIME  TEMP    WIND        PRES    WAVE
                       AIR SEA DIR/SP/G            HT/PER
                 (UTC) (F)     (DEG/KT/KT) (MB)    (FT/S)
CHAMBERS ISLAND  1000   41     330/  5/  6  982.7F
N MID LAKE BUOY  1050   42 42  320/  8/  8  980.7F   2/ 6
NORTHPORT PIER   1000   41     310/  6/  9  982.1F
SISTER BAY       1043           10/  9/  9   N/A
KEWAUNEE LAKESHO 1000   42     300/  3/  5  981.8F
SHEBOYGAN LAKESH 1100   44 39  270/  4/  5  982.9F
PORT WASHINGTON  1000   45     280/  4/  7  984.1F
MILWAUKEE LAKESH 1000   46     230/  5/  7   N/A
S MID LAKE BUOY  1050   46 42  220/ 12/ 12  984.0R   1/ 3
KENOSHA   LAKESH 1100   47     240/  8/ 10  984.4S
$$

TC  - TEMPERATURE IN CELSIUS
VSB - VISIBILITY IN STATUTE MILES
WCI - WIND CHILL INDEX
HX  - HEAT INDEX



USA.gov is the U.S. government's official web portal to all federal, state and local government web resources and services.